When you browse on this site, cookies collect data to enhance your experience and personalize the content and advertising you see.
Visit our Privacy Policy to learn more. By continuing to use the site, you agree to this use of cookies and data.
  • In Netherlands
  • List of Countries
  • For 7 days
  • Water Temperature
  • Weather Map
  • Weather Widgets
  • user-avatar
    Login

    Hourly Weather Dorchester

    Today, 24 August, Saturday

    Time Temperature Precipitation Wind Pressure Humidity
    00:00 +16°C° 0 mm 1 mps 761 mmHg 69%
    01:00 +16°C° 0 mm 1 mps 761 mmHg 69%
    02:00 +15°C° 0 mm 1 mps 761 mmHg 69%
    03:00 +14°C° 0 mm 1 mps 760 mmHg 69%
    04:00 +15°C° 0 mm 1 mps 760 mmHg 70%
    05:00 +15°C° 0 mm 1 mps 760 mmHg 71%
    06:00 +15°C° 0 mm 1 mps 760 mmHg 72%
    07:00 +18°C° 0 mm 1 mps 760 mmHg 68%
    08:00 +19°C° 0 mm 2 mps 760 mmHg 64%
    09:00 +21°C° 0 mm 2 mps 760 mmHg 59%
    10:00 +24°C° 0 mm 2 mps 760 mmHg 55%
    11:00 +25°C° 0 mm 3 mps 759 mmHg 52%
    12:00 +27°C° 0 mm 3 mps 759 mmHg 48%
    13:00 +27°C° 0 mm 3 mps 759 mmHg 47%
    14:00 +28°C° 0 mm 4 mps 759 mmHg 46%
    15:00 +28°C° 0 mm 4 mps 759 mmHg 45%
    16:00 +27°C° 0 mm 3 mps 758 mmHg 51%
    17:00 +26°C° 0 mm 3 mps 758 mmHg 56%
    18:00 +24°C° 0 mm 2 mps 758 mmHg 62%
    19:00 +23°C° 0 mm 2 mps 758 mmHg 64%
    20:00 +21°C° 0 mm 2 mps 758 mmHg 66%
    21:00 +20°C° 0 mm 1 mps 758 mmHg 69%
    22:00 +20°C° 0 mm 1 mps 758 mmHg 70%
    23:00 +19°C° 0 mm 1 mps 758 mmHg 72%

    Tomorrow, 25 August, Sunday

    Time Temperature Precipitation Wind Pressure Humidity
    00:00 +19°C° 0 mm 1 mps 758 mmHg 73%
    01:00 +18°C° 0 mm 1 mps 758 mmHg 74%
    02:00 +17°C° 0 mm 2 mps 758 mmHg 75%
    03:00 +17°C° 0 mm 2 mps 757 mmHg 75%
    04:00 +17°C° 0 mm 2 mps 757 mmHg 75%
    05:00 +18°C° 0 mm 2 mps 757 mmHg 75%
    06:00 +18°C° 0 mm 2 mps 757 mmHg 75%
    07:00 +20°C° 0 mm 2 mps 758 mmHg 70%
    08:00 +23°C° 0 mm 2 mps 758 mmHg 65%
    09:00 +25°C° 0 mm 3 mps 758 mmHg 60%
    10:00 +26°C° 0 mm 3 mps 758 mmHg 55%
    11:00 +28°C° 0 mm 3 mps 758 mmHg 50%
    12:00 +30°C° 0 mm 3 mps 758 mmHg 45%
    13:00 +30°C° 0 mm 3 mps 758 mmHg 44%
    14:00 +30°C° 0 mm 3 mps 758 mmHg 43%
    15:00 +30°C° 0 mm 3 mps 758 mmHg 42%
    16:00 +29°C° 0 mm 3 mps 758 mmHg 47%
    17:00 +28°C° 0 mm 3 mps 758 mmHg 53%
    18:00 +26°C° 0 mm 2 mps 758 mmHg 59%
    19:00 +24°C° 0 mm 2 mps 758 mmHg 63%
    20:00 +23°C° 0 mm 2 mps 759 mmHg 67%
    21:00 +21°C° 0 mm 1 mps 759 mmHg 71%
    22:00 +20°C° 0 mm 1 mps 759 mmHg 72%
    23:00 +20°C° 0 mm 1 mps 759 mmHg 73%

    Day after tomorrow, 26 August, Monday

    Time Temperature Precipitation Wind Pressure Humidity
    00:00 +19°C° 0 mm 1 mps 759 mmHg 73%
    01:00 +19°C° 0 mm 1 mps 759 mmHg 74%
    02:00 +19°C° 0 mm 1 mps 759 mmHg 74%
    03:00 +18°C° 0 mm 1 mps 758 mmHg 75%
    04:00 +17°C° 0 mm 0 mps 758 mmHg 75%
    05:00 +17°C° 0 mm 0 mps 758 mmHg 75%
    06:00 +17°C° 0 mm 0 mps 758 mmHg 75%
    07:00 +19°C° 0 mm 0 mps 758 mmHg 69%
    08:00 +23°C° 0 mm 1 mps 758 mmHg 63%
    09:00 +25°C° 0 mm 1 mps 758 mmHg 57%
    10:00 +27°C° 0 mm 2 mps 758 mmHg 53%
    11:00 +28°C° 0 mm 2 mps 758 mmHg 49%
    12:00 +30°C° 0 mm 2 mps 758 mmHg 45%
    13:00 +30°C° 0 mm 2 mps 758 mmHg 44%
    14:00 +31°C° 0 mm 3 mps 758 mmHg 42%
    15:00 +31°C° 0 mm 3 mps 758 mmHg 41%
    16:00 +30°C° 0 mm 3 mps 757 mmHg 46%
    17:00 +28°C° 0 mm 2 mps 757 mmHg 51%
    18:00 +27°C° 0 mm 2 mps 757 mmHg 57%
    19:00 +26°C° 0 mm 2 mps 757 mmHg 59%
    20:00 +24°C° 0 mm 1 mps 757 mmHg 62%
    21:00 +23°C° 0 mm 1 mps 757 mmHg 64%
    22:00 +22°C° 0 mm 1 mps 757 mmHg 66%
    23:00 +22°C° 0 mm 1 mps 757 mmHg 67%

    27 August, Tuesday

    Time Temperature Precipitation Wind Pressure Humidity
    00:00 +20°C° 0 mm 0 mps 757 mmHg 68%
    01:00 +19°C° 0 mm 0 mps 756 mmHg 70%
    02:00 +19°C° 0 mm 0 mps 756 mmHg 71%
    03:00 +18°C° 0 mm 0 mps 756 mmHg 72%
    04:00 +18°C° 0 mm 0 mps 756 mmHg 73%
    05:00 +18°C° 0 mm 0 mps 756 mmHg 74%
    06:00 +18°C° 0 mm 0 mps 756 mmHg 75%
    07:00 +20°C° 0 mm 0 mps 756 mmHg 69%
    08:00 +22°C° 0 mm 0 mps 756 mmHg 64%
    09:00 +25°C° 0 mm 1 mps 756 mmHg 59%
    10:00 +27°C° 0 mm 1 mps 756 mmHg 55%
    11:00 +28°C° 0 mm 1 mps 756 mmHg 52%
    12:00 +29°C° 0 mm 1 mps 756 mmHg 49%
    13:00 +29°C° 0 mm 1 mps 756 mmHg 49%
    14:00 +29°C° 0 mm 1 mps 755 mmHg 48%
    15:00 +29°C° 0 mm 1 mps 755 mmHg 48%
    16:00 +28°C° 0 mm 2 mps 755 mmHg 56%
    17:00 +26°C° 0 mm 3 mps 755 mmHg 65%
    18:00 +25°C° 0 mm 4 mps 755 mmHg 73%
    19:00 +24°C° 0.2 mm 3 mps 756 mmHg 76%
    20:00 +21°C° 0.2 mm 3 mps 756 mmHg 80%
    21:00 +20°C° 0.2 mm 2 mps 756 mmHg 83%
    22:00 +19°C° 0 mm 2 mps 756 mmHg 82%
    23:00 +19°C° 0 mm 2 mps 756 mmHg 80%

    28 August, Wednesday

    Time Temperature Precipitation Wind Pressure Humidity
    00:00 +18°C° 0 mm 2 mps 756 mmHg 79%
    01:00 +18°C° 0 mm 2 mps 756 mmHg 77%
    02:00 +17°C° 0 mm 2 mps 756 mmHg 75%
    03:00 +17°C° 0 mm 2 mps 756 mmHg 73%
    04:00 +17°C° 0 mm 2 mps 756 mmHg 74%
    05:00 +17°C° 0 mm 2 mps 756 mmHg 74%
    06:00 +17°C° 0 mm 2 mps 756 mmHg 74%
    07:00 +18°C° 0 mm 2 mps 757 mmHg 71%
    08:00 +19°C° 0 mm 2 mps 757 mmHg 67%
    09:00 +21°C° 0 mm 1 mps 757 mmHg 64%
    10:00 +21°C° 0 mm 2 mps 757 mmHg 62%
    11:00 +22°C° 0 mm 3 mps 757 mmHg 60%
    12:00 +24°C° 0 mm 3 mps 757 mmHg 57%
    13:00 +21°C° 0.2 mm 3 mps 757 mmHg 66%
    14:00 +20°C° 0.2 mm 4 mps 757 mmHg 74%
    15:00 +18°C° 0.2 mm 4 mps 757 mmHg 83%
    16:00 +18°C° 0 mm 3 mps 757 mmHg 82%
    17:00 +19°C° 0 mm 3 mps 757 mmHg 80%
    18:00 +19°C° 0 mm 2 mps 757 mmHg 78%
    19:00 +18°C° 0 mm 2 mps 757 mmHg 82%
    20:00 +17°C° 0 mm 2 mps 757 mmHg 86%
    21:00 +16°C° 0 mm 2 mps 758 mmHg 90%
    22:00 +16°C° 0 mm 1 mps 758 mmHg 90%
    23:00 +16°C° 0 mm 1 mps 758 mmHg 91%

    29 August, Thursday

    Time Temperature Precipitation Wind Pressure Humidity
    00:00 +15°C° 0 mm 1 mps 758 mmHg 91%
    01:00 +15°C° 0 mm 1 mps 758 mmHg 92%
    02:00 +15°C° 0 mm 1 mps 757 mmHg 92%
    03:00 +15°C° 0 mm 1 mps 757 mmHg 93%
    04:00 +15°C° 0 mm 1 mps 757 mmHg 93%
    05:00 +15°C° 0 mm 1 mps 758 mmHg 93%
    06:00 +15°C° 0 mm 1 mps 758 mmHg 94%
    07:00 +16°C° 0 mm 1 mps 758 mmHg 89%
    08:00 +18°C° 0 mm 2 mps 758 mmHg 84%
    09:00 +19°C° 0 mm 2 mps 758 mmHg 80%
    10:00 +19°C° 0.1 mm 2 mps 758 mmHg 78%
    11:00 +19°C° 0.1 mm 2 mps 758 mmHg 76%
    12:00 +20°C° 0.1 mm 3 mps 758 mmHg 74%
    13:00 +21°C° 0 mm 3 mps 758 mmHg 68%
    14:00 +21°C° 0 mm 3 mps 757 mmHg 62%
    15:00 +22°C° 0 mm 4 mps 757 mmHg 56%
    16:00 +21°C° 0 mm 3 mps 757 mmHg 58%
    17:00 +20°C° 0 mm 3 mps 757 mmHg 61%
    18:00 +19°C° 0 mm 3 mps 758 mmHg 64%
    19:00 +17°C° 0 mm 3 mps 758 mmHg 68%
    20:00 +16°C° 0 mm 3 mps 758 mmHg 72%
    21:00 +13°C° 0 mm 3 mps 758 mmHg 76%
    22:00 +14°C° 0 mm 2 mps 758 mmHg 80%
    23:00 +13°C° 0 mm 2 mps 758 mmHg 84%
    Show more